Showing default

START 1, 22561

Orbit data source: Space-Track

START 1, 22561 is a payload satellite owned by VKS (CIS) in LEO that was launched on Thu, 25 Mar 1993 UTC via a START-1 launch vehicle from the Plesetsk Missile And Space Complex (PKMTR). Payload-class satellites include a variety of spacecraft equipped with specific instruments for various scientific and technological missions. These include communications satellites like Starlink; space stations such as the ISS; scientific satellites like the Hubble; Earth observation satellites from companies like Planet Labs, Umbra, and HawkEye 360; GPS; miniature CubeSats for education and research; and military/defense satellites.

Loading next visibility...
Identifier
22561, 1993-014A
Orbit
LEO
Country
Flag of CISCIS
Related business
Manufacturer
Kompleks-MIT
Mission
Defense Technology
Bus & Motor
EKA, Unknown motor
Mass
260 kg wet, 260 kg dry
Launch date (UTC)
1993-03-25 (33 years ago)
Launch vehicle
START-1
Launch site
Plesetsk Missile And Space Complex (PKMTR)
Object type
Payload
Rocket body
Debris
Shape & HBR
Cyl, 0.7 m
Radar Cross Section
1.414 m², Large (>1 m²)

Expand to show TLE details & history
Last TLE update: 2 days ago

TLE from 2 days ago
0 START 1
1 22561U 93014A   26171.29955949  .00000087  00000-0  37170-4 0  9999
2 22561  75.7618  11.5857 0192847 169.1517 191.3892 14.22589008724308
Epoch: 2026-06-20T07:11Z
TLE epoch observation values (Epoch: 2026-06-20T07:11:21.939Z)
Latitude
-0.0001°
Longitude
-4.77191°
Altitude
955.442 km
Speed
7.304 km/s
True Right ascension
00h 46m 20s
True Declination
0° 00' 00"
Sunlit
Object was in daylight at epoch
Visualization orbit readout
Latitude
Unknown
Longitude
Unknown
Altitude
Unknown
Speed
Unknown
Apparent Right ascension
Unknown
Apparent Declination
Unknown
Sunlit
N/A
Visualization observer readout
Local Sidereal Time
00:51:00
Azimuth
Unknown
Elevation
Unknown
Doppler factor
Unknown
Orbital elements
Apogee altitude
952.809 km
Perigee altitude
675.408 km
Semi-major axis
7,192.246 km
Eccentricity
0.01928
Inclination
75.7618°
RAAN
11.5857°
Arg. of periapsis
169.1517°
True anomaly
190.9629°
Mean anomaly
191.3892°
Eccentric anomaly
191.17506°
Mean motion
3.55833 °/min
Orbital period
101.17 mins
BSTAR
0.00003717
Loading maneuver chart data...
Computing Atmospheric mass density...

Documentation

Showing up to 5 results
|